Terminal Aerodrome Forecast
Issued by NWS Wilmington, OH

Current Version | Previous Version | Graphics & Text | Print | Product List | Glossary On
Versions: 1 2 3 4 5 6 7 8 9 10 11 12 13 14 15 16 17 18 19 20 21 22 23 24 25 26 27 28
000
FTUS41 KILN 191100
TAFILN
TAF
KILN 191130Z 1912/2012 09012KT P6SM FEW060 OVC150
     FM191400 10012G20KT P6SM -SHRA OVC040
     FM191700 12016G26KT 5SM -SHRA OVC028
     FM192100 17016G26KT 4SM -SHRA OVC018
     FM200100 21014G22KT P6SM VCSH OVC020
     FM201000 18012G20KT P6SM VCSH OVC015=

USA.gov is the U.S. government's official web portal to all federal, state and local government web resources and services.